Location: Eastlake (historical)
(39.0077°N, 122.6678°W)
Time: 11:11:32
(UTC+00:00)

ALOS - Pass Details

Date: 18 April 2021
Orbit: 682 x 685 km, 97.9° (Epoch: 08 May)

Event Time Altitude Azimuth Distance (km) Brightness Sun altitude
Rises 12:32:49 0° 10° (N) 3,054 6.1 -11.2°
Reaches altitude 10° 12:35:04 10° 9° (N) 2,134 5.3 -10.8°
Maximum altitude 12:39:43 76° 285° (WNW) 707 2.2 -9.9°
Drops below altitude 10° 12:44:21 10° 199° (SSW) 2,118 4.4 -9.1°
Sets 12:46:35 0° 198° (SSW) 3,029 5.2 -8.7°
